Location: Unspecified
(0.0000°N, 0.0000°E)
Time: 23:27:22
(UTC+00:00)

A-11 Canister half - Visible Passes

Search period start: 12 December 2018 00:00
Search period end: 22 December 2018 00:00
Orbit: 1527 x 1682 km, 47.3° (Epoch: 12 December)

Date Brightness Start Highest point End Pass type
(mag) Time Alt. Az. Time Alt. Az. Time Alt. Az.
12 Dec 11.1 03:42:55 10° S 03:50:10 24° SE 03:57:32 10° E visible
12 Dec 10.8 18:39:07 10° WNW 18:47:25 33° SW 18:55:34 10° SSE visible
13 Dec 11.1 03:21:37 10° S 03:28:31 22° SE 03:35:30 10° E visible
13 Dec 9.1 05:23:48 10° SW 05:33:32 78° NW 05:43:34 10° NE visible
13 Dec 10.7 18:17:17 10° WNW 18:25:47 36° SW 18:34:10 10° SSE visible
14 Dec 11.1 03:00:21 10° S 03:06:51 20° SE 03:13:26 10° E visible
14 Dec 9.1 05:02:11 10° SW 05:11:56 83° NW 05:21:57 10° NE visible
15 Dec 11.1 02:39:07 10° S 02:45:11 18° SE 02:51:20 10° E visible
15 Dec 9.1 04:40:35 10° SW 04:50:17 88° NW 05:00:19 10° NE visible
16 Dec 11.2 02:17:57 10° S 02:23:31 17° SE 02:29:09 10° E visible
16 Dec 9.1 04:18:59 10° SW 04:28:40 87° SE 04:38:40 10° NE visible
17 Dec 11.2 01:56:50 10° SSE 02:01:51 15° SE 02:06:54 10° ESE visible
17 Dec 9.1 03:57:24 10° SW 04:07:03 82° SE 04:17:01 10° NE visible
18 Dec 11.2 01:35:49 10° SSE 01:40:10 14° SE 01:44:33 10° ESE visible
18 Dec 9.1 03:35:51 10° SW 03:45:27 77° SE 03:55:21 10° NE visible
19 Dec 11.2 01:14:58 10° SSE 01:18:29 12° SE 01:22:02 10° ESE visible
19 Dec 9.1 03:14:17 10° SSW 03:23:49 72° SE 03:33:39 10° NE visible
19 Dec 9.9 05:21:33 10° W 05:28:55 24° NW 05:36:29 10° N visible
20 Dec 11.2 00:54:25 10° SSE 00:56:48 11° SE 00:59:11 10° ESE visible
20 Dec 9.2 02:52:44 10° SSW 03:02:12 67° SE 03:11:58 10° NE visible
20 Dec 9.8 04:59:39 10° W 05:07:16 26° NW 05:15:06 10° N visible
21 Dec 9.5 02:42:54 51° E 02:42:54 51° E 02:50:16 10° NE visible
21 Dec 9.7 04:41:30 21° W 04:45:36 28° NW 04:53:41 10° N visible
